Home   Weather   Curitiba   Past weeks
Flag for Brazil

Past Weather in Curitiba, Paraná, Brazil — Yesterday and Last 2 Weeks

Now
52 °F

Passing clouds.


Feels Like: 51 °F
Forecast: 74 / 56 °F
Wind: 3 mph from East

Location: Curitiba Aeroporto

Current Time: Jun 16, 2019 at 6:28:17 am

Latest Report: Jun 16, 2019 at 6:06 am


Visibility: 4 mi

Pressure: 30.30 "Hg (27.14 "Hg at 915m altitude)

Humidity: 100%

Dew Point: 52 °F

Location of CuritibaLocation

Past Weather in Curitiba — Graph

°F

Curitiba Temperature Yesterday

Maximum temperature yesterday: 77 °F (at 12:00 pm)
Minimum temperature yesterday: 57 °F (at 3:00 am)
Average temperature yesterday: 66 °F

High & Low Weather Summary for the Past Weeks

 TemperatureHumidityPressure
High79 °F (Jun 14, 1:00 pm)100% (Jun 1, 5:00 am)30.45 "Hg (Jun 1, 5:00 am)
Low32 °F (Jun 12, 8:00 am)34% (Jun 3, 12:00 pm)29.98 "Hg (Jun 1, 5:00 am)
Average59 °F85%30.23 "Hg
* Reported Jun 1 5:00 am — Jun 16 5:00 am, Curitiba. Weather by CustomWeather, © 2019

Note: Actual official high and low records may vary slightly from our data, if they occured in-between our weather recording intervals... More about our weather records

Advertising

Curitiba Weather History for the Previous 24 Hours

Scroll right to see more
 ConditionsComfort  
Time TempWeatherWind HumidityBarometerVisibility
5:00 am
Sun, Jun 16
54 °FClear.2 mph94%30.27 "Hg10 mi
4:00 am55 °FClear.2 mph100%30.30 "Hg10 mi
3:00 am55 °FClear.2 mph100%30.30 "Hg10 mi
2:00 am57 °FClear.2 mph94%30.30 "Hg10 mi
1:00 am57 °FClear.2 mph100%30.30 "Hg10 mi
12:00 am59 °FClear.3 mph94%30.30 "Hg10 mi
11:00 pm
Sat, Jun 15
61 °FPassing clouds.2 mph94%30.30 "HgN/A
10:00 pm61 °FPassing clouds.3 mph88%30.27 "HgN/A
9:00 pm61 °FClear.3 mph88%30.27 "Hg10 mi
8:00 pm63 °FPartly cloudy.6 mph83%30.27 "HgN/A
7:00 pm64 °FPartly cloudy.5 mph78%30.24 "HgN/A
6:00 pm70 °FPassing clouds.3 mph60%30.24 "HgN/A
5:00 pm73 °FSunny.2 mph47%30.21 "Hg10 mi
4:00 pm75 °FSunny.5 mph44%30.21 "Hg10 mi
3:00 pm77 °FSunny.5 mph39%30.21 "Hg10 mi
2:00 pm77 °FSunny.6 mph42%30.21 "Hg10 mi
1:00 pm77 °FSunny.3 mph42%30.24 "Hg10 mi
12:00 pm77 °FPassing clouds.6 mph42%30.30 "HgN/A
11:00 am75 °FPassing clouds.9 mph44%30.30 "HgN/A
10:00 am72 °FSunny.7 mph61%30.30 "Hg10 mi
9:00 am66 °FSunny.2 mph78%30.30 "Hg10 mi
8:00 am59 °FSunny.3 mph94%30.30 "Hg10 mi
7:00 am59 °FSunny.2 mph88%30.27 "Hg10 mi
6:00 am59 °FClear.2 mph94%30.24 "Hg10 mi
Weather by CustomWeather, © 2019

See weather overview